N9DRW Weather Reports


Display with metric or nautical units.
time (UTC)temp
F
wind
direction
speed
MPH
gust
MPH
rain 1hr
in
rain 24hr
in
rain mn
in
humidity
%
barometer
mb
20260902092203 73 191 0.0 1.0 0.00 0.00 0.00 84
20260902091203 74 88 0.0 0.0 0.00 0.00 0.00 84
20260902090204 74 88 0.0 2.0 0.00 0.00 0.00 83
20260902085204 74 62 2.0 2.0 0.00 0.00 0.00 83
20260902084203 74 188 0.0 2.0 0.00 0.00 0.00 82
20260902083203 74 30 0.0 2.0 0.00 0.00 0.00 82
20260902082203 74 307 1.0 7.0 0.00 0.00 0.00 82
20260902081204 75 11 2.0 2.0 0.00 0.00 0.00 81
20260902080204 74 235 0.0 2.0 0.00 0.00 0.00 81
20260902075203 74 247 1.0 2.0 0.00 0.00 0.00 82
20260902074203 74 308 0.0 5.0 0.00 0.00 0.00 83
20260902073204 74 266 1.0 5.0 0.00 0.00 0.00 83
20260902072203 74 273 0.0 6.0 0.00 0.00 0.00 83
20260902071204 75 244 0.0 5.0 0.00 0.00 0.00 82
20260902070212 74 230 2.0 5.0 0.00 0.00 0.00 83
20260902052205 74 239 0.0 0.0 0.00 0.00 0.00 77
20260902051204 74 239 0.0 0.0 0.00 0.00 0.00 76
20260902050204 74 239 0.0 0.0 0.00 0.00 0.00 77
20260902045204 74 239 0.0 0.0 0.00 0.00 0.00 77
20260902044205 74 242 0.0 1.0 0.00 0.00 0.00 78
20260902043204 74 274 0.0 0.0 0.00 0.00 0.00 77
20260902042204 74 274 0.0 1.0 0.00 0.00 0.00 76
20260902041205 74 256 0.0 0.0 0.00 0.00 0.00 76
20260902040204 74 256 0.0 0.0 0.00 0.00 0.00 75
20260902035204 74 256 0.0 0.0 0.00 0.00 0.00 75
20260902034205 75 256 0.0 0.0 0.00 0.00 0.00 75
20260902033204 75 256 0.0 0.0 0.00 0.00 0.00 73
20260902032204 75 256 0.0 1.0 0.00 0.00 0.00 72
20260902031204 75 302 0.0 0.0 0.00 0.00 0.00 72
20260902030208 75 302 0.0 1.0 0.00 0.00 0.00 72
20260902025204 75 196 1.0 3.0 0.00 0.00 0.00 72
20260902024204 74 254 0.0 1.0 0.00 0.00 0.00 75
20260902023205 73 325 0.0 0.0 0.00 0.00 0.00 77
20260902022203 71 325 0.0 0.0 0.00 0.00 0.00 77
20260902021204 72 325 0.0 0.0 0.00 0.00 0.00 77
20260902020204 72 325 0.0 0.0 0.00 0.00 0.00 76
20260902015205 73 325 0.0 0.0 0.00 0.00 0.00 75
20260902014204 73 325 0.0 0.0 0.00 0.00 0.00 75
20260902013204 74 325 0.0 0.0 0.00 0.00 0.00 73
20260902012204 74 325 0.0 0.0 0.00 0.00 0.00 74
20260902011204 74 325 0.0 0.0 0.00 0.00 0.00 73
20260902010204 74 325 0.0 0.0 0.00 0.00 0.00 73
20260902005204 75 325 0.0 0.0 0.00 0.00 0.00 72
20260902004204 76 325 0.0 0.0 0.00 0.00 0.00 71
20260902003204 76 325 0.0 0.0 0.00 0.00 0.00 69
20260902002204 78 325 0.0 0.0 0.00 0.00 0.00 67
20260902001204 78 325 0.0 0.0 0.00 0.00 0.00 65
20260902000204 79 325 0.0 1.0 0.00 0.00 0.00 63
20260901235204 79 1 0.0 2.0 0.00 0.00 0.00 60
20260901234205 79 6 0.0 2.0 0.00 0.00 0.00 60
20260901233204 80 249 0.0 0.0 0.00 0.00 0.00 61
20260901232204 80 249 0.0 0.0 0.00 0.00 0.00 60
20260901231204 80 249 0.0 2.0 0.00 0.00 0.00 60
20260901230204 80 196 0.0 2.0 0.00 0.00 0.00 59
20260901225203 80 303 0.0 3.0 0.00 0.00 0.00 59
20260901224203 80 260 1.0 3.0 0.00 0.00 0.00 58
20260901223204 80 272 1.0 6.0 0.00 0.00 0.00 58
20260901222204 80 253 1.0 6.0 0.00 0.00 0.00 58
20260901221204 84 331 2.0 5.0 0.00 0.00 0.00 55
20260901220204 84 216 1.0 5.0 0.00 0.00 0.00 54
20260901215204 84 224 0.0 6.0 0.00 0.00 0.00 57
20260901214204 83 237 2.0 5.0 0.00 0.00 0.00 62
20260901213204 82 212 1.0 2.0 0.00 0.00 0.00 69
20260901212204 82 303 1.0 2.0 0.00 0.00 0.00 69
20260901211204 83 336 0.0 2.0 0.00 0.00 0.00 68
20260901210205 84 154 1.0 3.0 0.00 0.00 0.00 64
20260901205204 84 310 1.0 5.0 0.00 0.00 0.00 62
20260901204204 85 288 1.0 5.0 0.00 0.00 0.00 62
20260901203204 84 283 1.0 7.0 0.00 0.00 0.00 63
20260901202204 84 293 2.0 6.0 0.00 0.00 0.00 65
20260901201204 83 202 2.0 6.0 0.00 0.00 0.00 67
20260901200204 83 284 1.0 6.0 0.00 0.00 0.00 70
20260901195204 83 230 2.0 8.0 0.00 0.00 0.00 74
20260901194204 82 255 1.0 6.0 0.00 0.00 0.00 76
20260901193204 82 205 3.0 7.0 0.00 0.00 0.00 77
20260901192204 82 276 2.0 6.0 0.00 0.00 0.00 77
20260901191204 82 204 2.0 5.0 0.00 0.00 0.00 77
20260901190208 83 208 1.0 3.0 0.00 0.00 0.00 75
20260901185204 83 241 2.0 6.0 0.00 0.00 0.00 69
20260901184204 83 233 1.0 8.0 0.00 0.00 0.00 68
20260901183204 84 228 1.0 7.0 0.00 0.00 0.00 68
20260901182204 84 244 3.0 8.0 0.00 0.00 0.00 66
20260901181204 83 231 3.0 7.0 0.00 0.00 0.00 69
20260901180204 83 229 1.0 3.0 0.00 0.00 0.00 71
20260901175204 84 276 2.0 7.0 0.00 0.00 0.00 67
20260901174204 85 224 2.0 7.0 0.00 0.00 0.00 64
20260901173203 86 240 3.0 9.0 0.00 0.00 0.00 64
20260901172204 86 243 2.0 8.0 0.00 0.00 0.00 65
20260901171204 86 315 1.0 6.0 0.00 0.00 0.00 63
20260901170204 86 277 1.0 6.0 0.00 0.00 0.00 64
20260901165204 86 257 1.0 7.0 0.00 0.00 0.00 66
20260901164204 85 253 3.0 6.0 0.00 0.00 0.00 65
20260901163204 85 215 3.0 5.0 0.00 0.00 0.00 65
20260901162204 84 247 0.0 2.0 0.00 0.00 0.00 70
20260901161204 84 328 1.0 2.0 0.00 0.00 0.00 71
20260901160204 83 300 0.0 6.0 0.00 0.00 0.00 72
20260901155204 83 307 1.0 2.0 0.00 0.00 0.00 74
20260901154203 82 210 0.0 3.0 0.00 0.00 0.00 76
20260901153204 81 225 2.0 6.0 0.00 0.00 0.00 78
20260901152204 80 202 3.0 5.0 0.00 0.00 0.00 81
20260901151204 79 274 0.0 3.0 0.00 0.00 0.00 86
20260901150208 78 236 0.0 5.0 0.00 0.00 0.00 88
20260901145204 77 325 1.0 5.0 0.00 0.00 0.00 89
20260901144204 78 288 0.0 1.0 0.00 0.00 0.00 89
20260901143204 77 357 0.0 0.0 0.00 0.00 0.00 88
20260901142204 77 357 1.0 2.0 0.00 0.00 0.00 89
20260901141204 76 233 1.0 3.0 0.00 0.00 0.00 91
20260901140204 76 33 0.0 5.0 0.00 0.00 0.00 91
20260901135204 76 316 0.0 6.0 0.00 0.00 0.00 90
20260901134204 76 338 2.0 5.0 0.00 0.00 0.00 90
20260901133204 76 339 2.0 6.0 0.00 0.00 0.00 91
20260901132203 75 293 1.0 6.0 0.00 0.00 0.00 93
20260901131204 75 276 1.0 2.0 0.00 0.00 0.00 94
20260901130204 74 348 1.0 3.0 0.00 0.00 0.00 94
20260901125204 74 285 2.0 2.0 0.00 0.00 0.00 94
20260901124204 73 236 0.0 0.0 0.00 0.00 0.00 95
20260901123204 72 236 0.0 0.0 0.00 0.00 0.00 94
20260901122204 72 236 0.0 0.0 0.00 0.00 0.00 94
20260901121203 71 236 0.0 0.0 0.00 0.00 0.00 94
20260901120204 72 236 0.0 0.0 0.00 0.00 0.00 94
20260901115204 72 236 0.0 0.0 0.00 0.00 0.00 94
20260901114204 71 236 0.0 0.0 0.00 0.00 0.00 94
20260901113204 71 219 0.0 1.0 0.00 0.00 0.00 94
20260901112204 72 212 0.0 1.0 0.00 0.00 0.00 94
20260901111204 72 301 0.0 2.0 0.00 0.00 0.00 94
20260901110207 72 338 0.0 1.0 0.00 0.00 0.00 94
20260901105205 72 250 0.0 2.0 0.00 0.00 0.00 94
20260901104204 72 280 0.0 2.0 0.00 0.00 0.00 94
20260901103204 72 233 0.0 1.0 0.00 0.00 0.00 94
20260901102204 72 261 0.0 0.0 0.00 0.00 0.00 93
20260901101204 73 290 1.0 2.0 0.00 0.00 0.00 94
20260901100205 72 213 0.0 1.0 0.00 0.00 0.00 93
20260901095208 72 280 0.0 0.0 0.00 0.00 0.00 93
20260901094204 73 280 0.0 0.0 0.00 0.00 0.00 92
20260901093204 73 280 0.0 0.0 0.00 0.00 0.00 93